Regional Weather Roundup
Issued by NWS Glasgow, MT

Home | Current Version | Previous Version | Text Only | Print | Product List | Glossary On
Versions: 1 2 3 4 5 6 7 8 9 10 11 12 13 14 15 16 17 18 19 20 21 22 23 24 25 26 27 28 29 30 31 32 33 34 35 36 37 38 39 40 41 42 43 44 45 46 47 48 49 50
000
ASUS45 KGGW 211215
RWRGGW
HOURLY REGIONAL WEATHER ROUNDUP FOR NORTHEAST MONTANA
NATIONAL WEATHER SERVICE GLASGOW MONTANA
500 AM MST SAT JAN 21 2017

NOTE: "FAIR" INDICATES FEW OR NO CLOUDS BELOW 12,000 FEET WITH NO
SIGNIFICANT WEATHER AND/OR OBSTRUCTIONS TO VISISBILITY.

NORTHEAST MONTANA


CITY           SKY/WX    TMP DP  RH WIND       PRES   REMARKS
GLASGOW        CLOUDY    22  20  92 W10       29.35R
6HR MIN TEMP:  20; 6HR MAX TEMP:  29;

PLENTYWOOD       N/A     32  28  85 NW7         N/A
WOLF POINT     CLOUDY    25  21  85 W12       29.35S
JORDAN           N/A     14  11  87 W5        29.33F
WINNETT          N/A     15  14  95 W1          N/A
SIDNEY         CLOUDY    34  26  72 W17       29.31S
GLENDIVE       CLOUDY    29  24  82 W5        29.34S
MALTA            N/A     21  21 100 SW5         N/A

FORT PECK REPORTS


CITY           SKY/WX    TMP DP  RH WIND       PRES   REMARKS
FORT PECK        N/A     24  24 100 S2          N/A
THE PINES        N/A     24  22  91 CALM        N/A

SOUTHEAST MONTANA


CITY           SKY/WX    TMP DP  RH WIND       PRES   REMARKS
BILLINGS       FOG       18  17  96 SW14      29.33F VSB 1/2
MILES CITY     FOG       20  17  88 S6        29.36F VSB<1/4
BAKER          CLOUDY    28  26  92 W10       29.33S
LIVINGSTON     CLOUDY    13   7  77 NW8       29.32S

CENTRAL MONTANA


CITY           SKY/WX    TMP DP  RH WIND       PRES   REMARKS
HAVRE          CLEAR     14  12  92 CALM      29.37S
LEWISTOWN      CLEAR     18  14  84 SE5       29.31F
GREAT FALLS    CLEAR     17  12  80 CALM      29.32S
CUT BANK       CLEAR     14  11  87 NW8       29.32S
HELENA         FOG        6   3  87 CALM      29.35S VSB 3/4
BUTTE          CLOUDY     3  -1  83 S3        29.30S
BOZEMAN        CLOUDY     9   4  80 CALM      29.33S

WESTERN MONTANA


CITY           SKY/WX    TMP DP  RH WIND       PRES   REMARKS
MISSOULA       FOG       17  15  92 CALM      29.37R VSB 1
KALISPELL      NOT AVBL

NORTH DAKOTA


CITY           SKY/WX    TMP DP  RH WIND       PRES   REMARKS
WILLISTON      CLOUDY    26  23  88 E6        29.30S
DICKINSON      CLOUDY    29  26  89 W9        29.27S
MINOT          CLOUDY    28  26  92 CALM      29.30S FOG
BISMARCK       CLOUDY    30  28  92 W6        29.32S FOG

SOUTHERN SASKATCHEWAN


CITY           SKY/WX    TMP DP  RH WIND       PRES   REMARKS
REGINA         CLOUDY    18  16  93 E5        29.28R
ESTEVAN        FOG       14  12  92 E2        29.29S VSB 1/8
SWIFT CURRENT  HVY SNOW  23  23 100 W10       29.30S VSB 1/4




USA.gov is the U.S. government's official web portal to all federal, state and local government web resources and services.